DELTA 1 DEB, 10183

Orbit data source: Space-Track

DELTA 1 DEB, 10183 is space debris in LEO originally from a launch on Thu, 14 Jul 1977 UTC launched from the Air Force Eastern Test Range (AFETR). Debris objects in space refer to the collection of defunct objects orbiting the Earth. Examples of debris include non-operational satellites, rocket bodies, and fragments generated from explosions, collisions, or faulty payload assembly.

Loading next visibility...
Identifier
10183, 1977-065M
Orbit
LEO
Country
Flag of USUS
Related business
Manufacturer
Unknown
Mission
Spacecraft
Bus & Motor
Unknown
Mass
Unknown
Launch date (UTC)
1977-07-14 (49 years ago)
Launch vehicle
Unknown
Launch site
Air Force Eastern Test Range (AFETR)
Object type
Payload
Rocket body
Debris
Shape & HBR
Unknown shape, 0.2 m
Radar Cross Section
Medium (>0.1 m² and <1 m²)

Expand to show TLE details & history
Last TLE update: 3 hours ago

TLE from 3 hours ago
0 DELTA 1 DEB
1 10183U 77065M   26133.55174845  .00004187  00000-0  10010-2 0  9996
2 10183  29.2103 330.3305 0462305  75.7820 289.3647 14.02665202405756
Epoch: 2026-05-13T13:14Z
TLE epoch observation values (Epoch: 2026-05-13T13:14:31.066Z)
Latitude
-0.00002°
Longitude
-99.60912°
Altitude
785.806 km
Speed
7.513 km/s
True Right ascension
22h 01m 19s
True Declination
0° 00' 00"
Sunlit
Object was in daylight at epoch
Visualization orbit readout
Latitude
Unknown
Longitude
Unknown
Altitude
Unknown
Speed
Unknown
Apparent Right ascension
Unknown
Apparent Declination
Unknown
Sunlit
N/A
Visualization observer readout
Local Sidereal Time
00:16:50
Azimuth
Unknown
Elevation
Unknown
Doppler factor
Unknown
Orbital elements
Apogee altitude
1,224.437 km
Perigee altitude
552.557 km
Semi-major axis
7,266.634 km
Eccentricity
0.04623
Inclination
29.2103°
RAAN
330.3305°
Arg. of periapsis
75.782°
True anomaly
284.27593°
Mean anomaly
289.3647°
Eccentric anomaly
286.82933°
Mean motion
3.50383 °/min
Orbital period
102.74 mins
BSTAR
0.001001
Loading maneuver chart data...
Computing Atmospheric mass density...
Loading historical data...
Loading historical data...
Loading historical data...
Loading historical data...
Loading historical data...
Loading historical data...
Loading historical data...

Documentation

Showing up to 5 results
|